Home   Weather   Braunau am Inn   Past weeks

Flag for Austria Past Weather in Braunau am Inn, Upper Austria, Austria — Yesterday and Last 2 Weeks

52 °F


Feels Like: 50 °F
Forecast: 42 / 61 °F
Wind: 6 mph from Southeast

Location: Salzburg-Flughafen

Current Time: Oct 24, 2016 at 10:56:24 AM

Latest Report: Oct 24, 2016 at 10:00 AM

Visibility: 25 mi

Pressure: 30.01 "Hg

Humidity: 66%

Dew Point: 41 °F

Location of Braunau am InnLocation

Past Weather in Braunau am Inn — Graph


Braunau am Inn Temperature Yesterday

Maximum temperature yesterday: 61 °F (at 4:00 PM)
Minimum temperature yesterday: 32 °F (at 3:00 AM)
Average temperature yesterday: 45 °F

High & Low Weather Summary for the Past Weeks

High67 °F (Oct 15, 1:00 PM)100% (Oct 13, 3:00 AM)30.29 "Hg (Oct 13, 3:00 AM)
Low29 °F (Oct 13, 8:00 AM)39% (Oct 23, 2:00 PM)29.74 "Hg (Oct 15, 2:00 AM)
Average46 °F85%30.07 "Hg
* Reported Oct 9 9:00 AM — Oct 24 9:00 AM, Braunau am Inn, Weather by CustomWeather, © 2016

Note: Actual official high and low records may vary slightly from our data, if they occured in-between our weather recording intervals... More about our weather records


Braunau am Inn Weather History for the Previous 24 Hours

Scroll right to see more
Time TempWeatherWind HumidityBarometerVisibility
9:00 AM
Mon, Oct 24
51 °FPartly sunny.6 mph68%30.01 "Hg25 mi
8:00 AM49 °FPartly sunny.7 mph70%30.01 "Hg31 mi
7:00 AM49 °FPassing clouds.7 mph71%30.00 "Hg31 mi
6:00 AM49 °FPassing clouds.6 mph70%30.00 "Hg31 mi
5:00 AM50 °FPassing clouds.6 mph69%29.99 "Hg31 mi
4:00 AM49 °FPassing clouds.6 mph72%29.97 "Hg31 mi
3:00 AM52 °FOvercast.6 mph66%29.96 "Hg31 mi
2:00 AM51 °FOvercast.6 mph69%29.96 "Hg31 mi
1:00 AM47 °FPassing clouds.5 mph82%29.97 "Hg31 mi
12:00 AM46 °FRain showers. Overcast.N/A93%29.98 "Hg7 mi
11:00 PM
Sun, Oct 23
47 °FLight rain. Overcast.N/A89%29.96 "Hg8 mi
10:00 PM47 °FLight rain. Overcast.N/A92%29.97 "Hg7 mi
9:00 PM47 °FOvercast.N/A88%29.97 "Hg9 mi
8:00 PM47 °FOvercast.N/A84%29.93 "Hg11 mi
7:00 PM51 °FPassing clouds.N/A74%29.90 "Hg14 mi
6:00 PM53 °FPartly sunny.N/A71%29.89 "Hg19 mi
5:00 PM56 °FPartly sunny.N/A62%29.88 "Hg17 mi
4:00 PM61 °FScattered clouds.5 mph42%29.84 "Hg28 mi
2:00 PM60 °FPassing clouds.5 mph39%29.88 "Hg19 mi
1:00 PM58 °FScattered clouds.5 mph47%29.89 "Hg25 mi
12:00 PM53 °FScattered clouds.6 mph52%29.92 "Hg28 mi
11:00 AM49 °FPartly sunny.6 mph66%29.95 "Hg25 mi
10:00 AM43 °FPartly sunny.5 mph75%29.98 "Hg31 mi
Weather by CustomWeather, © 2016

See weather overviewHow to use our weather pages